Wind_Speed
41 38 35 34 35 36 36 36 36 35 33 32 31 29 28 28 28 27 28 28 28 28 28 28 29 30 32 33 33 34 36 37 39 40 41 43 47 50 49 48 47 46 44 42 42 44 45 44 44 41 38 36 35 33 31 30 32 33 35 37 39 43 48
40 38 35 34 35 36 36 37 37 36 35 35 34 32 30 28 28 28 28 28 28 28 28 28 28 29 30 31 32 33 34 36 37 39 40 40 42 47 50 50 50 48 45 43 42 44 45 45 44 42 41 39 38 36 34 32 32 33 35 38 39 41 45
38 36 35 34 34 34 35 36 37 36 36 36 35 34 33 31 29 28 28 29 29 29 28 28 28 28 29 30 30 30 31 32 34 36 39 40 41 42 45 47 50 49 47 46 44 43 44 44 44 43 42 41 40 38 36 33 32 32 35 39 41 41 42
36 36 35 34 34 34 35 35 35 36 37 36 36 36 35 34 32 30 29 29 30 30 30 29 28 28 28 28 29 29 29 30 31 33 35 37 40 42 43 45 48 49 48 48 47 45 45 45 45 45 43 42 41 40 37 35 34 35 37 40 42 43 42
39 39 39 38 39 38 38 37 37 37 37 36 37 37 37 37 36 34 32 31 30 31 31 31 30 29 28 28 29 29 29 30 30 31 32 33 36 39 43 45 47 49 49 48 48 47 46 47 48 47 47 46 44 42 40 39 40 40 40 41 43 44 43
41 43 45 44 44 44 43 42 42 42 41 40 40 40 40 39 38 37 36 34 32 32 32 32 32 31 30 30 30 30 30 30 31 31 32 32 33 35 39 43 46 49 50 50 49 48 48 48 48 48 49 49 48 46 44 43 43 43 42 43 44 44 44
43 44 46 46 46 46 47 47 46 45 44 42 42 42 42 41 40 40 39 37 35 34 33 33 34 34 34 33 33 33 33 32 32 32 32 32 33 34 36 39 43 46 49 51 51 50 50 50 49 49 49 50 49 48 47 45 44 44 44 44 44 44 44
47 46 48 48 46 45 46 46 45 43 41 41 41 42 42 43 42 41 41 41 39 37 36 35 35 36 36 36 36 36 36 35 34 34 33 33 33 34 35 37 39 43 46 50 52 52 53 52 50 49 49 49 49 48 47 46 44 44 45 45 45 45 45
49 48 49 50 48 45 44 43 42 41 41 42 42 41 42 42 43 43 44 43 42 41 40 38 38 38 38 38 38 38 38 37 36 36 35 35 34 34 35 36 37 39 42 46 49 52 55 55 53 51 50 50 49 48 46 46 45 45 45 46 46 46 46
46 45 46 49 47 44 43 42 43 43 45 45 44 43 43 42 43 45 45 45 45 44 44 43 41 41 41 41 41 41 40 40 39 38 37 37 36 36 36 36 37 38 39 41 44 48 52 56 56 55 53 52 50 49 47 47 47 47 46 46 48 49 48
43 42 43 46 46 44 43 44 45 48 50 51 50 48 46 44 43 44 45 46 47 47 46 46 45 45 44 43 43 43 43 42 42 41 40 39 39 38 37 37 38 38 39 39 41 43 46 51 55 57 57 55 53 51 50 48 48 48 48 48 49 51 51
47 45 44 45 46 46 45 45 47 51 54 56 56 54 52 49 45 44 45 46 46 47 48 48 48 48 47 47 46 46 45 45 44 44 43 42 41 40 39 39 39 39 40 40 41 42 43 45 49 53 56 57 57 55 54 52 50 50 51 50 50 52 54
49 50 52 52 51 49 48 49 53 56 57 58 58 57 56 54 50 48 47 47 47 48 49 49 50 49 50 50 49 49 49 48 48 47 46 45 44 43 42 41 40 41 41 42 42 42 43 43 45 48 51 55 58 58 58 57 56 54 54 54 53 53 55
53 54 57 59 58 58 58 61 63 62 61 59 58 57 57 57 55 53 52 52 51 51 50 50 51 51 51 51 52 52 52 52 51 51 49 48 47 46 45 44 43 43 43 43 43 43 44 44 44 45 47 50 55 58 61 62 60 58 56 57 57 56 56
61 60 61 63 64 65 68 70 69 66 63 60 58 57 57 58 57 55 55 56 56 55 54 53 53 53 52 53 53 54 54 54 54 53 53 52 51 50 49 48 47 46 46 45 45 45 45 45 45 46 47 48 50 54 58 61 62 61 59 58 59 60 60
64 64 64 66 67 68 70 70 68 65 61 59 57 56 55 55 56 57 57 58 59 59 58 57 56 55 55 55 55 55 55 56 56 56 55 54 54 53 52 52 51 50 49 49 48 48 47 47 47 47 47 48 49 50 53 56 59 61 61 60 59 60 61
62 63 63 63 64 65 64 64 62 61 59 58 58 57 56 56 58 59 59 60 60 61 61 60 60 60 60 59 58 58 58 58 58 57 57 56 56 56 55 55 54 53 53 52 52 51 51 51 50 49 49 49 50 51 52 53 55 57 59 60 60 60 61
59 60 59 59 59 59 58 57 56 57 58 59 59 60 60 60 60 59 58 58 60 61 61 61 62 63 63 62 62 61 60 60 60 59 58 58 58 58 58 58 57 57 56 56 55 54 54 54 54 54 53 53 52 53 53 54 55 56 57 58 59 60 62
56 57 57 56 55 55 54 52 53 55 56 57 57 58 58 59 59 57 56 56 57 59 61 61 62 62 62 62 62 62 62 61 61 60 59 60 60 59 59 60 60 60 59 59 58 58 57 57 57 57 58 57 57 56 56 56 56 57 58 59 59 60 61
50 51 53 54 52 52 52 52 51 51 52 53 54 54 52 53 55 56 56 57 57 58 59 61 62 62 62 62 61 62 63 63 62 61 60 60 61 61 61 61 62 62 62 62 61 61 61 60 60 60 61 61 61 61 60 60 59 59 59 60 60 61 61
43 43 44 47 47 47 49 51 50 49 49 48 47 48 48 48 51 53 54 55 56 57 58 60 62 63 63 64 64 64 63 63 62 62 61 60 61 61 63 63 63 64 65 65 65 64 63 63 63 64 64 63 63 64 64 64 63 63 62 62 62 62 63
39 40 39 40 42 44 47 48 48 51 52 49 45 47 50 51 53 55 54 52 51 52 54 56 59 61 63 65 67 68 68 66 65 64 63 62 62 63 64 65 66 67 67 67 67 66 65 65 66 67 67 67 67 67 66 66 66 66 66 66 66 65 65
40 44 44 41 42 46 48 45 44 50 56 56 55 56 55 53 53 54 52 51 50 49 51 53 56 58 60 62 65 67 68 69 67 66 66 65 65 65 66 67 68 69 69 70 69 68 68 68 68 69 69 69 70 70 70 69 69 68 69 69 69 69 69
51 51 50 47 46 48 51 48 46 49 55 58 60 61 60 57 55 54 55 55 54 53 52 54 57 59 60 61 62 63 65 66 66 65 66 66 65 65 67 69 70 70 71 72 72 71 71 72 72 71 72 72 73 73 73 73 72 72 71 72 73 73 72
61 60 59 58 55 54 56 57 55 55 56 59 61 62 62 61 59 59 59 60 59 57 56 57 59 60 62 63 63 63 64 64 64 64 64 64 64 65 67 69 70 71 73 73 73 73 74 74 75 75 75 76 76 76 76 76 76 75 75 75 76 76 76
66 66 65 64 63 62 62 63 64 64 64 64 64 63 63 62 62 62 62 62 62 61 61 61 61 62 63 64 65 65 65 65 65 64 64 63 64 65 67 67 68 70 72 73 73 73 74 74 76 76 76 77 77 78 79 79 78 77 77 77 78 79 79
63 64 64 63 63 63 62 63 64 65 65 65 63 63 63 63 63 64 64 65 65 65 65 64 64 64 65 66 67 67 67 67 67 66 66 65 65 66 67 68 68 68 69 69 70 71 72 73 75 76 76 76 76 77 79 80 80 79 78 79 80 81 82
62 63 63 63 63 63 62 62 62 62 63 63 63 64 64 64 65 66 67 68 69 69 69 68 67 68 68 68 69 69 69 70 69 69 69 69 68 69 70 70 70 70 70 68 68 69 71 73 75 76 76 76 76 76 77 78 79 79 79 79 80 82 83
62 64 64 64 64 63 63 62 62 62 62 63 64 65 65 67 68 69 70 71 71 71 71 71 70 71 71 71 71 71 72 73 73 73 73 72 72 72 73 73 74 73 72 70 69 70 72 74 75 75 76 77 77 77 77 78 78 79 79 79 80 81 83
63 64 64 64 64 64 63 62 62 63 64 65 66 66 67 68 69 70 71 72 73 73 74 73 73 73 73 73 73 73 74 75 75 76 76 76 76 75 75 76 77 76 75 74 73 73 74 75 75 75 76 77 79 80 81 82 82 82 82 82 83 84 84
63 63 63 64 64 64 64 65 65 66 67 67 68 68 69 70 70 71 72 72 73 74 74 75 74 74 74 75 75 75 76 76 77 77 78 78 78 78 78 78 79 79 79 78 78 78 78 78 77 77 77 77 79 81 83 85 86 87 87 87 87 87 87
64 64 64 65 65 66 67 68 69 69 69 69 69 70 70 71 71 72 72 73 73 74 74 75 75 75 75 75 76 76 77 77 78 78 79 79 79 79 80 80 80 81 81 81 81 81 81 81 80 80 81 81 81 82 84 85 86 87 88 87 87 86 87
66 67 67 68 68 69 71 72 72 72 71 71 71 71 71 72 72 73 73 74 74 74 74 74 74 75 75 76 76 76 77 78 78 78 79 79 80 80 80 81 81 82 83 83 83 83 83 83 83 83 84 85 85 86 87 87 87 88 88 87 86 86 86
68 69 70 71 72 72 73 74 75 74 74 73 73 73 73 73 73 74 74 75 75 75 74 74 74 74 74 74 75 76 76 77 78 78 78 79 80 80 81 81 82 83 83 84 84 84 84 84 84 85 86 87 88 88 89 90 90 90 89 89 88 88 87
71 72 73 74 75 75 76 76 77 78 77 75 74 74 74 75 75 75 75 75 75 75 74 74 73 73 73 73 73 74 75 76 76 77 77 78 78 79 80 81 82 83 83 83 83 84 84 85 86 86 86 87 87 88 88 90 90 90 90 89 89 89 89
74 75 76 76 77 77 78 78 78 79 79 78 77 76 77 77 76 75 75 74 74 73 73 72 72 72 71 72 72 73 73 74 75 75 75 76 77 78 78 79 80 81 82 83 83 84 85 86 86 86 86 86 86 87 87 87 87 87 87 87 87 87 88
76 76 77 78 79 79 79 78 78 78 78 79 80 80 79 78 76 75 74 73 72 71 70 70 70 70 70 71 71 72 72 71 71 72 72 73 74 75 76 77 79 80 81 81 82 84 85 85 85 85 85 85 85 85 85 84 84 83 83 83 83 84 85
Wind_Direction
283 281 280 281 283 283 283 283 283 282 283 284 285 286 288 288 286 282 278 274 270 265 262 259 258 257 257 256 255 253 251 248 247 245 245 245 241 238 239 239 239 240 242 243 241 238 238 237 237 238 238 236 236 239 241 244 244 243 242 240 238 235 232
279 277 274 274 278 280 281 282 280 278 279 281 282 283 284 285 285 283 280 276 271 268 264 261 259 258 258 258 257 255 254 251 249 247 245 244 242 241 241 240 239 239 239 239 239 239 239 239 239 239 239 239 239 240 242 246 248 247 245 242 240 239 236
274 272 271 271 274 276 277 278 276 276 277 277 278 279 281 281 282 281 279 276 272 268 264 262 260 259 259 258 258 258 257 254 252 250 248 246 245 243 241 240 239 238 238 238 237 237 238 238 238 238 239 240 242 244 245 245 246 248 248 245 241 240 239
275 273 272 274 276 276 275 274 275 276 276 274 274 276 278 279 279 279 278 275 271 267 264 261 258 257 257 257 258 258 258 257 255 253 251 249 248 245 242 241 239 239 238 237 236 236 237 237 237 238 238 240 242 244 245 245 248 251 251 248 244 241 241
278 276 275 276 277 277 276 276 277 278 278 274 273 274 274 274 276 276 276 274 271 268 264 261 259 257 256 257 258 258 258 258 258 256 254 251 249 247 244 242 241 240 238 237 236 236 237 238 239 239 239 240 241 242 244 247 252 254 252 251 248 244 243
274 272 272 273 274 275 276 276 278 280 280 277 275 275 273 272 273 273 273 273 271 269 266 263 261 260 260 262 263 262 261 259 258 257 256 254 250 248 245 243 242 241 239 238 237 235 236 238 240 240 239 240 241 243 246 250 253 254 253 251 249 247 245
274 271 271 272 272 273 274 275 278 280 280 279 278 276 273 270 270 271 271 272 271 270 268 265 263 262 263 265 268 268 267 265 262 259 257 255 252 249 246 244 243 243 242 241 239 237 236 238 241 241 239 239 241 243 246 250 252 252 251 250 248 246 246
274 273 272 272 273 274 274 275 278 278 279 281 282 278 273 269 268 268 269 269 269 269 268 265 263 261 262 263 266 267 268 268 266 263 260 257 255 252 249 246 244 244 243 243 242 240 237 238 241 242 240 238 240 242 244 248 250 250 249 249 246 243 243
275 275 273 272 272 273 274 274 275 275 278 283 283 279 274 269 266 267 267 267 267 266 266 265 263 260 259 260 261 263 264 265 266 265 263 261 258 255 253 250 248 246 244 244 244 243 241 239 240 243 242 240 240 242 244 246 248 249 248 247 246 242 239
275 275 273 270 270 271 272 273 272 272 276 280 280 278 276 272 270 268 267 266 265 265 264 264 263 262 259 258 258 260 261 262 262 263 263 263 262 260 258 255 253 251 249 247 245 245 244 242 242 243 244 243 241 241 243 245 246 247 247 246 245 242 239
272 274 273 270 270 272 274 275 275 274 275 277 277 275 274 273 274 271 268 267 265 264 264 263 263 262 261 259 258 258 259 260 260 260 260 261 262 262 262 261 259 256 253 251 249 248 246 244 244 244 245 245 244 242 241 243 245 246 246 245 244 243 241
269 272 272 270 270 272 273 275 277 278 278 277 276 274 271 270 273 274 270 269 267 265 264 263 262 262 261 261 260 259 258 258 259 259 258 258 259 260 261 262 262 261 259 256 254 252 250 248 246 245 245 244 244 244 242 242 244 245 245 245 244 243 242
268 272 272 271 270 270 271 276 279 280 279 278 276 274 270 267 271 274 271 269 268 267 265 263 261 261 261 260 260 259 258 258 258 258 258 257 257 258 258 259 260 261 261 260 259 257 255 253 250 248 247 245 244 244 243 243 244 244 243 243 244 243 242
266 270 271 272 271 270 273 279 282 281 279 277 276 274 270 266 268 271 270 267 267 267 266 264 261 259 259 258 258 257 257 257 256 256 256 256 256 256 256 256 257 258 259 260 260 260 258 257 255 252 250 248 246 245 244 245 246 245 243 242 242 243 242
264 266 267 269 271 272 276 281 282 281 278 276 274 272 269 265 265 267 269 268 267 266 265 263 260 258 258 258 257 257 256 256 256 255 255 255 255 255 255 255 255 255 256 257 258 259 259 259 257 256 254 252 250 248 246 246 246 246 245 243 242 242 242
263 265 266 269 272 274 276 278 278 277 275 273 270 268 264 262 263 267 270 269 266 264 263 262 260 258 258 259 259 258 257 256 256 255 255 255 254 254 254 254 254 254 254 255 256 257 258 258 258 257 256 255 253 252 250 249 248 247 247 245 244 243 242
263 265 267 269 271 272 273 273 272 272 272 270 269 266 262 261 264 269 271 269 265 263 262 261 259 258 259 261 261 260 258 257 256 255 256 256 255 255 254 254 254 254 254 253 254 255 256 257 258 258 257 256 255 254 253 252 250 249 248 247 246 245 244
261 264 266 267 268 269 268 269 270 269 268 269 269 268 266 266 268 269 268 265 263 262 261 260 259 259 259 260 261 261 259 258 257 256 256 256 256 256 256 255 255 254 254 254 254 254 254 255 256 257 257 257 256 256 255 254 253 252 250 249 248 248 247
259 261 263 264 266 267 266 265 267 267 267 267 267 268 269 268 267 265 263 262 260 260 259 259 259 259 259 260 261 261 260 259 258 257 256 257 257 257 257 257 257 256 255 254 254 254 253 253 254 255 255 256 256 256 256 255 255 254 253 252 251 250 249
260 261 262 263 263 266 267 266 267 268 267 266 266 267 269 270 268 264 261 260 259 258 258 257 257 258 259 259 260 260 259 259 258 258 258 259 259 259 258 257 257 257 256 255 254 253 253 254 254 254 254 254 255 255 255 255 255 255 254 253 252 251 250
267 265 264 263 262 263 264 264 263 263 264 264 264 264 264 264 265 264 262 262 262 261 260 259 258 258 258 258 258 258 259 259 259 259 259 261 262 261 259 258 258 257 257 256 255 254 254 254 254 254 254 254 254 254 254 255 255 255 255 254 253 252 251
266 265 261 259 257 256 256 257 257 257 259 260 258 258 259 259 261 263 265 267 267 267 266 265 263 260 259 258 258 258 258 259 259 259 258 260 262 262 260 258 257 257 257 256 256 256 255 255 255 255 254 254 254 253 253 254 254 255 255 255 255 254 253
244 250 252 251 250 252 254 255 254 254 257 259 259 260 263 265 266 268 268 268 268 268 268 268 267 266 263 261 260 259 259 259 259 258 256 257 259 260 259 257 257 257 257 257 257 256 256 256 256 256 255 255 255 254 254 253 253 254 254 255 255 255 255
235 239 245 247 246 249 253 254 253 251 253 258 262 265 267 267 267 267 267 267 268 267 265 265 266 267 266 265 263 262 261 260 260 258 256 255 255 256 256 257 257 257 256 255 256 256 256 256 256 257 256 256 256 256 255 254 253 253 253 254 254 254 254
239 241 244 246 246 248 251 252 252 251 252 256 261 265 267 267 266 265 265 266 266 265 264 264 264 265 266 266 266 265 264 263 262 260 258 256 255 253 253 254 255 256 255 254 254 255 255 256 256 256 257 257 257 257 257 256 255 254 254 253 253 253 253
245 247 248 249 249 250 251 251 252 252 254 257 260 262 264 265 265 265 265 265 264 264 263 262 262 263 264 265 266 266 266 266 265 264 262 260 259 257 255 253 253 254 255 254 254 254 255 255 255 255 255 256 257 257 257 257 256 256 255 254 253 253 253
248 250 251 252 252 252 253 252 252 254 256 258 259 260 262 263 264 265 265 265 264 263 262 262 261 262 262 263 264 265 265 266 266 265 265 264 263 262 261 258 256 255 254 253 253 253 254 254 254 255 255 256 256 257 256 256 255 255 255 255 254 253 253
247 249 250 252 254 255 256 256 256 257 257 258 259 260 261 262 263 264 265 265 264 264 263 263 262 261 261 261 261 262 263 264 264 264 264 264 263 263 263 262 261 259 257 255 253 253 253 253 254 255 255 255 256 256 255 255 255 255 255 255 255 255 254
246 248 249 252 254 256 257 258 258 259 259 260 261 261 262 263 264 265 265 266 265 265 265 264 263 263 262 261 260 260 261 261 261 262 262 263 263 263 263 263 263 262 261 260 257 256 255 255 255 255 255 256 256 256 255 255 254 255 255 256 257 256 256
250 251 252 254 256 257 257 258 258 259 260 260 262 263 264 265 265 265 266 267 267 267 267 266 265 264 264 263 262 261 260 260 260 260 260 260 261 262 262 263 263 263 263 263 262 260 260 259 258 257 256 257 257 257 257 256 256 256 257 258 258 258 258
257 258 259 259 260 260 260 259 259 259 260 262 263 264 264 265 265 266 266 267 268 268 268 268 267 266 265 264 263 262 261 261 260 260 260 260 260 260 261 261 262 263 263 263 263 263 263 262 262 261 260 259 258 259 259 258 258 258 258 259 259 259 258
261 262 262 263 263 263 263 263 263 263 263 264 265 265 266 266 267 267 267 268 268 268 269 268 268 267 266 265 264 263 262 261 261 261 261 261 260 260 260 260 261 261 262 262 262 262 262 262 263 263 263 262 262 261 261 260 260 260 260 260 259 258 258
262 263 264 264 264 265 265 266 266 266 266 267 267 267 267 268 269 269 270 270 270 269 269 268 268 267 266 265 264 264 263 262 261 260 260 260 261 261 261 261 261 261 261 261 261 261 262 262 262 262 262 262 262 262 263 263 263 263 263 263 262 261 260
264 265 266 266 266 267 267 268 268 268 268 268 268 268 269 269 270 270 271 271 271 270 270 269 269 268 267 266 265 264 263 263 262 261 261 260 261 261 261 261 261 261 262 262 262 263 263 262 262 261 261 261 261 261 262 263 263 263 264 264 264 264 263
264 265 265 266 267 268 268 269 269 270 270 270 270 270 271 271 271 271 271 271 271 272 271 271 270 269 268 267 266 265 264 263 262 262 261 261 261 261 261 261 262 262 263 263 264 264 263 263 263 263 262 262 262 262 261 262 262 263 264 264 264 264 264
262 263 264 265 265 266 267 268 269 271 272 272 273 272 272 272 272 272 272 272 272 272 272 272 271 271 270 269 267 266 265 264 263 262 262 261 261 261 262 262 262 263 263 264 264 264 264 264 264 264 264 264 264 264 264 264 264 264 264 264 265 265 265
261 262 262 263 263 264 265 266 267 269 271 273 274 274 273 273 273 273 273 272 272 271 271 272 271 271 270 270 269 268 267 266 265 264 263 263 262 262 262 263 263 263 263 264 264 264 264 265 265 266 266 266 266 266 266 267 267 266 266 266 266 266 266
Height
10601 10601 10602 10602 10601 10602 10603 10604 10604 10604 10603 10603 10602 10602 10601 10601 10600 10600 10599 10600 10600 10600 10601 10601 10601 10601 10601 10602 10603 10604 10606 10607 10608 10610 10611 10613 10615 10616 10618 10620 10621 10622 10622 10625 10628 10630 10633 10636 10638 10639 10640 10641 10642 10644 10645 10647 10649 10651 10652 10653 10655 10656 10657
10597 10598 10599 10599 10598 10598 10599 10600 10600 10601 10601 10600 10599 10599 10599 10598 10597 10597 10596 10596 10596 10597 10597 10597 10598 10598 10598 10599 10600 10601 10602 10603 10604 10605 10607 10609 10610 10611 10613 10615 10617 10618 10619 10620 10623 10625 10628 10631 10633 10635 10636 10638 10638 10640 10642 10644 10645 10647 10649 10649 10650 10651 10652
10594 10593 10594 10595 10595 10595 10595 10596 10597 10598 10598 10597 10597 10596 10595 10595 10595 10594 10593 10593 10593 10593 10594 10594 10595 10595 10595 10596 10597 10598 10599 10600 10600 10601 10603 10604 10606 10607 10608 10610 10611 10613 10614 10616 10618 10621 10623 10626 10628 10630 10632 10633 10634 10636 10638 10640 10642 10643 10644 10644 10645 10646 10648
10588 10588 10589 10590 10590 10590 10591 10592 10593 10594 10594 10594 10594 10593 10593 10592 10592 10591 10591 10590 10590 10590 10591 10591 10592 10592 10592 10593 10594 10595 10596 10596 10597 10597 10599 10600 10601 10602 10603 10605 10606 10608 10610 10612 10613 10616 10618 10621 10623 10625 10627 10629 10630 10632 10634 10636 10637 10638 10639 10639 10640 10641 10643
10582 10582 10583 10584 10584 10584 10585 10586 10588 10589 10590 10591 10590 10590 10590 10589 10589 10589 10588 10588 10588 10588 10588 10588 10589 10589 10590 10590 10591 10592 10592 10593 10593 10594 10595 10596 10597 10598 10599 10600 10602 10603 10605 10607 10609 10611 10613 10615 10617 10620 10622 10624 10626 10627 10629 10631 10632 10633 10633 10634 10635 10636 10638
10576 10576 10577 10579 10580 10579 10580 10581 10582 10584 10585 10586 10586 10586 10586 10586 10586 10585 10585 10585 10585 10585 10585 10585 10586 10586 10586 10587 10587 10588 10589 10589 10590 10590 10591 10592 10593 10594 10595 10596 10597 10599 10600 10602 10604 10606 10609 10611 10612 10615 10617 10619 10621 10623 10624 10626 10627 10627 10628 10629 10630 10631 10633
10570 10571 10571 10573 10575 10575 10575 10576 10577 10578 10579 10580 10580 10580 10581 10581 10581 10581 10581 10581 10582 10582 10582 10582 10583 10583 10583 10583 10584 10584 10585 10585 10586 10586 10587 10588 10589 10590 10591 10592 10593 10594 10596 10598 10599 10601 10604 10606 10607 10609 10611 10613 10616 10618 10619 10621 10621 10621 10622 10624 10625 10626 10628
10562 10565 10565 10567 10570 10571 10571 10571 10572 10573 10574 10574 10575 10575 10575 10576 10576 10577 10577 10577 10577 10578 10578 10579 10579 10579 10579 10580 10580 10580 10581 10581 10582 10582 10583 10584 10585 10586 10587 10588 10589 10590 10591 10593 10594 10596 10598 10600 10602 10604 10605 10608 10610 10613 10614 10616 10616 10616 10617 10619 10620 10622 10623
10557 10559 10560 10562 10566 10568 10567 10567 10567 10568 10569 10569 10569 10570 10570 10570 10571 10571 10572 10572 10573 10573 10573 10574 10574 10575 10575 10575 10576 10576 10577 10577 10578 10578 10579 10580 10580 10581 10583 10583 10585 10586 10586 10588 10589 10591 10593 10595 10597 10598 10600 10602 10605 10607 10609 10610 10611 10611 10613 10614 10615 10616 10619
10553 10554 10556 10557 10560 10562 10563 10563 10562 10563 10563 10564 10564 10565 10565 10565 10565 10566 10567 10568 10568 10568 10568 10569 10569 10570 10570 10571 10571 10571 10572 10573 10573 10574 10575 10575 10576 10577 10578 10579 10580 10581 10582 10583 10584 10586 10588 10589 10591 10593 10594 10596 10599 10601 10603 10605 10606 10606 10608 10609 10609 10611 10613
10550 10550 10552 10552 10554 10556 10558 10558 10558 10557 10558 10558 10559 10560 10560 10561 10561 10561 10562 10563 10564 10564 10564 10564 10565 10565 10566 10566 10566 10567 10567 10568 10569 10569 10570 10571 10572 10572 10573 10574 10575 10576 10577 10578 10579 10581 10582 10584 10585 10587 10589 10590 10592 10595 10597 10599 10600 10601 10603 10604 10605 10606 10608
10547 10547 10548 10548 10549 10551 10552 10553 10553 10552 10552 10552 10553 10554 10555 10555 10556 10556 10557 10558 10559 10559 10560 10560 10560 10561 10561 10561 10562 10562 10563 10563 10564 10565 10566 10567 10567 10568 10569 10570 10571 10571 10572 10573 10574 10575 10577 10578 10579 10580 10582 10584 10586 10588 10591 10593 10594 10595 10597 10598 10599 10601 10602
10543 10544 10544 10544 10545 10545 10546 10548 10548 10547 10546 10546 10547 10548 10549 10550 10551 10552 10552 10553 10553 10554 10554 10554 10555 10555 10556 10556 10557 10557 10558 10558 10559 10559 10560 10562 10563 10564 10565 10565 10566 10567 10567 10568 10569 10570 10571 10572 10574 10575 10576 10578 10580 10582 10584 10586 10588 10589 10590 10592 10593 10595 10596
10539 10540 10539 10539 10540 10540 10539 10540 10540 10540 10540 10540 10541 10541 10542 10544 10544 10545 10545 10546 10547 10547 10548 10548 10548 10549 10549 10550 10550 10551 10551 10552 10553 10554 10555 10556 10557 10558 10559 10560 10561 10562 10562 10563 10564 10565 10566 10567 10568 10569 10570 10572 10573 10574 10576 10578 10580 10582 10584 10585 10587 10588 10589
10534 10535 10535 10534 10535 10535 10533 10532 10532 10532 10532 10533 10534 10534 10535 10535 10536 10537 10537 10538 10540 10541 10541 10541 10541 10542 10542 10542 10543 10544 10545 10546 10547 10548 10549 10550 10551 10552 10553 10554 10554 10556 10557 10558 10558 10559 10560 10561 10562 10563 10564 10565 10566 10567 10569 10570 10572 10574 10576 10578 10579 10581 10582
10528 10528 10529 10529 10529 10529 10526 10524 10523 10523 10522 10523 10525 10526 10528 10528 10528 10529 10530 10530 10531 10532 10533 10533 10534 10534 10535 10536 10537 10538 10539 10540 10540 10541 10543 10544 10545 10546 10546 10547 10548 10549 10550 10551 10552 10553 10554 10555 10556 10557 10558 10558 10559 10560 10562 10563 10564 10566 10568 10570 10571 10573 10574
10519 10520 10521 10522 10521 10519 10517 10515 10514 10514 10513 10514 10515 10517 10519 10521 10522 10522 10522 10522 10523 10523 10524 10525 10526 10527 10527 10528 10530 10531 10532 10532 10533 10535 10536 10537 10538 10539 10540 10541 10542 10542 10543 10544 10546 10547 10548 10549 10550 10551 10551 10552 10553 10553 10554 10556 10557 10558 10560 10562 10563 10565 10566
10512 10512 10513 10513 10511 10509 10508 10508 10507 10506 10506 10506 10506 10507 10510 10513 10514 10514 10513 10513 10514 10514 10515 10517 10518 10518 10519 10521 10522 10523 10524 10525 10526 10527 10529 10530 10530 10532 10533 10534 10535 10536 10537 10537 10539 10540 10541 10542 10543 10544 10544 10545 10546 10546 10547 10548 10549 10551 10552 10554 10556 10557 10558
10506 10506 10506 10505 10503 10501 10501 10501 10500 10499 10499 10500 10500 10500 10501 10502 10503 10504 10504 10504 10505 10506 10507 10508 10510 10511 10512 10513 10514 10515 10516 10517 10518 10520 10521 10522 10523 10525 10526 10526 10527 10528 10530 10531 10531 10532 10532 10533 10534 10536 10536 10537 10538 10539 10540 10540 10542 10543 10544 10546 10548 10550 10551
10499 10500 10499 10497 10497 10496 10494 10495 10495 10493 10492 10493 10494 10494 10494 10493 10492 10493 10494 10495 10496 10498 10499 10500 10502 10504 10505 10506 10506 10507 10507 10509 10510 10512 10513 10514 10515 10516 10518 10519 10519 10520 10521 10522 10522 10523 10524 10525 10527 10527 10527 10528 10530 10531 10531 10532 10534 10535 10536 10538 10539 10541 10543
10491 10493 10492 10490 10490 10490 10488 10489 10489 10487 10487 10489 10489 10489 10488 10486 10485 10484 10486 10488 10489 10491 10493 10493 10494 10496 10497 10497 10498 10498 10499 10501 10503 10504 10505 10506 10506 10507 10508 10510 10510 10510 10510 10511 10513 10514 10515 10517 10517 10517 10518 10520 10521 10522 10523 10524 10525 10527 10528 10529 10530 10532 10534
10484 10485 10485 10483 10481 10480 10480 10482 10483 10482 10481 10484 10484 10482 10482 10481 10479 10479 10481 10483 10484 10484 10485 10484 10485 10487 10488 10487 10488 10489 10490 10492 10495 10497 10498 10498 10497 10497 10499 10499 10499 10500 10501 10502 10503 10505 10506 10507 10507 10508 10509 10511 10511 10512 10514 10516 10517 10519 10519 10520 10521 10523 10524
10477 10475 10477 10477 10474 10472 10473 10476 10478 10477 10476 10476 10476 10476 10476 10477 10476 10476 10477 10477 10478 10477 10477 10476 10475 10476 10477 10477 10478 10479 10480 10482 10485 10487 10489 10489 10488 10488 10488 10488 10488 10489 10491 10492 10493 10495 10496 10496 10497 10498 10500 10501 10501 10503 10505 10507 10509 10510 10511 10511 10512 10513 10514
10468 10466 10468 10470 10469 10468 10468 10470 10473 10472 10470 10470 10470 10470 10471 10472 10472 10471 10470 10470 10469 10470 10469 10468 10467 10466 10466 10467 10468 10470 10470 10472 10474 10476 10477 10479 10480 10479 10478 10477 10477 10479 10480 10481 10483 10485 10485 10486 10486 10488 10490 10490 10491 10492 10494 10497 10499 10500 10501 10502 10502 10503 10504
10460 10459 10461 10463 10464 10464 10463 10464 10466 10466 10465 10464 10463 10463 10464 10464 10464 10464 10463 10462 10461 10461 10461 10460 10459 10459 10458 10459 10460 10461 10461 10461 10463 10464 10466 10469 10470 10469 10468 10467 10467 10468 10468 10470 10473 10475 10475 10476 10476 10478 10479 10479 10480 10481 10483 10486 10488 10490 10491 10492 10492 10492 10494
10452 10452 10453 10454 10456 10457 10457 10457 10457 10458 10458 10458 10457 10457 10456 10456 10456 10456 10455 10453 10452 10451 10451 10451 10451 10452 10452 10451 10452 10452 10452 10452 10453 10455 10456 10458 10459 10458 10457 10458 10459 10459 10458 10461 10464 10465 10465 10466 10466 10467 10468 10469 10471 10471 10472 10474 10476 10479 10480 10481 10481 10481 10482
10445 10443 10444 10445 10446 10448 10449 10449 10450 10451 10451 10451 10451 10450 10449 10448 10448 10447 10446 10444 10443 10442 10442 10442 10444 10445 10444 10444 10444 10444 10444 10444 10444 10445 10446 10448 10448 10447 10447 10448 10449 10449 10450 10453 10455 10455 10456 10456 10455 10456 10458 10460 10461 10461 10461 10462 10465 10468 10469 10469 10470 10469 10470
10437 10435 10435 10436 10437 10438 10439 10441 10442 10443 10443 10443 10443 10442 10441 10441 10439 10438 10436 10434 10433 10433 10433 10434 10435 10436 10436 10436 10436 10437 10436 10436 10436 10436 10436 10437 10438 10437 10436 10436 10437 10437 10439 10443 10446 10446 10445 10445 10445 10447 10448 10449 10449 10450 10451 10452 10454 10456 10457 10457 10458 10459 10459
10429 10428 10428 10429 10429 10430 10431 10433 10434 10434 10434 10434 10434 10433 10432 10431 10430 10428 10426 10424 10423 10423 10423 10424 10426 10426 10426 10426 10427 10428 10427 10427 10427 10427 10426 10427 10427 10427 10426 10426 10425 10426 10429 10432 10434 10435 10434 10434 10435 10437 10438 10439 10439 10439 10440 10442 10443 10445 10445 10447 10448 10448 10449
10420 10420 10420 10421 10422 10423 10423 10425 10425 10425 10425 10424 10424 10424 10423 10421 10420 10418 10416 10414 10413 10413 10413 10414 10415 10415 10415 10415 10415 10417 10417 10416 10416 10417 10417 10417 10417 10417 10417 10416 10415 10416 10418 10421 10422 10422 10422 10422 10424 10427 10428 10428 10428 10428 10428 10429 10431 10432 10433 10435 10436 10437 10438
10409 10410 10411 10411 10412 10413 10413 10414 10415 10415 10415 10415 10414 10414 10413 10410 10409 10408 10407 10405 10404 10403 10403 10403 10404 10404 10403 10403 10403 10404 10404 10405 10405 10405 10406 10407 10407 10408 10408 10407 10406 10406 10408 10409 10410 10411 10411 10412 10414 10416 10416 10417 10417 10416 10415 10416 10417 10418 10420 10422 10423 10425 10426
10399 10399 10400 10400 10401 10401 10401 10401 10402 10402 10403 10404 10404 10403 10401 10399 10398 10397 10396 10395 10394 10394 10393 10392 10392 10392 10391 10391 10391 10392 10392 10393 10394 10394 10394 10395 10396 10397 10397 10397 10397 10396 10397 10398 10398 10399 10401 10402 10403 10404 10405 10405 10405 10403 10402 10403 10404 10405 10406 10408 10410 10412 10413
10387 10388 10388 10389 10389 10389 10389 10388 10389 10390 10391 10392 10392 10391 10390 10388 10387 10385 10384 10383 10382 10382 10382 10381 10381 10380 10380 10380 10380 10380 10380 10380 10382 10383 10383 10384 10384 10385 10385 10386 10386 10385 10385 10385 10386 10388 10389 10391 10392 10393 10393 10392 10391 10390 10390 10391 10391 10392 10393 10394 10396 10398 10400
10376 10376 10376 10376 10376 10376 10376 10376 10375 10376 10377 10378 10378 10378 10377 10377 10375 10373 10372 10371 10370 10370 10370 10370 10369 10369 10369 10368 10368 10368 10368 10368 10369 10371 10372 10373 10373 10373 10374 10374 10374 10373 10373 10374 10375 10377 10378 10378 10378 10378 10378 10378 10378 10379 10379 10378 10378 10379 10381 10383 10384 10384 10385
10365 10365 10364 10363 10364 10363 10362 10362 10360 10360 10361 10364 10365 10365 10364 10363 10362 10362 10361 10360 10359 10359 10359 10358 10358 10357 10357 10356 10356 10355 10355 10355 10357 10358 10360 10361 10362 10362 10362 10363 10363 10362 10362 10363 10364 10364 10364 10363 10363 10363 10364 10364 10365 10366 10366 10365 10366 10368 10369 10370 10371 10372 10372
10352 10353 10353 10353 10352 10351 10350 10350 10349 10348 10348 10348 10350 10351 10350 10350 10349 10349 10349 10349 10349 10349 10348 10348 10347 10346 10345 10344 10344 10343 10343 10343 10344 10346 10348 10349 10350 10351 10352 10352 10352 10352 10351 10352 10352 10351 10349 10349 10349 10350 10351 10352 10352 10352 10352 10354 10355 10356 10357 10357 10358 10359 10359
10338 10340 10341 10340 10339 10338 10339 10340 10340 10340 10339 10337 10335 10334 10335 10336 10337 10338 10337 10337 10338 10339 10338 10337 10336 10334 10334 10333 10332 10331 10331 10332 10333 10335 10336 10338 10339 10340 10341 10341 10340 10340 10340 10340 10339 10338 10337 10337 10338 10339 10339 10339 10339 10339 10340 10342 10343 10344 10345 10345 10346 10346 10346